Regional Weather Roundup
Issued by NWS

Home | Current Version | Previous Version | Graphics & Text | Print | Product List | Glossary Off
Versions: 1 2 3 4 5 6 7 8 9 10 11 12 13 14 15 16 17 18 19 20 21 22 23 24 25 26 27 28 29 30 31 32 33 34 35 36 37 38 39 40 41 42 43 44 45 46 47 48 49 50

000
ASUS43 KMPX 282110
RWRMN
WEATHER ROUNDUP FOR MINNESOTA
NATIONAL WEATHER SERVICE TWIN CITIES/CHANHASSEN MN
300 PM CST TUE FEB 28 2017


NOTE: "FAIR" INDICATES FEW OR NO CLOUDS BELOW 12,000 FEET WITH NO
SIGNIFICANT WEATHER AND/OR OBSTRUCTIONS TO VISIBILITY. N/A MEANS
CURRENT SKY AND/OR WEATHER CONDITIONS ARE NOT AVAILABLE.

MNZ060>063-068>070-282200-
   Twin Cities Metro

CITY           SKY/WX    TMP DP  RH WIND       PRES   REMARKS
TWIN CITIES    CLOUDY    45  32  60 N13G24    29.66R
ST PAUL        CLOUDY    45  34  65 N8        29.66S
CRYSTAL        CLOUDY    43  31  62 NE10      29.66R
BLAINE         CLOUDY    43  36  75 NE13      29.66F
LAKEVILLE      CLOUDY    45  36  70 NE9       29.64R
EDEN PRAIRIE   CLOUDY    46  33  60 NE10      29.64R
SOUTH ST PAUL  CLOUDY    46  33  62 N5        29.65R
LAKE ELMO      CLOUDY    43  34  70 N8        29.66S
$$
MNZ001>005-007-008-013>017-022>024-027-028-282200-
   Northwest Minnesota

CITY           SKY/WX    TMP DP  RH WIND       PRES   REMARKS
BEMIDJI        MOSUNNY   33  20  59 NE10G17   29.80S WCI  25
HALLOCK        SUNNY     19  12  73 NW9       29.93S WCI   9
ROSEAU         SUNNY     21  12  68 E13       29.91S WCI   9
WARROAD        SUNNY     23   9  54 NE10      29.92S WCI  12
THIEF RVR FALL   N/A    N/A N/A N/A MISG        N/A
CROOKSTON      SUNNY     28  19  69 NE9       29.89S WCI  20
FOSSTON        SUNNY     34  23  64 NE8       29.83S WCI  27
DETROIT LAKES  SUNNY     36  27  69 N6        29.77S
MOORHEAD       SUNNY     30  25  80 N18       29.82F WCI  18
PARK RAPIDS    MOSUNNY   35  20  54 NE9       29.76S WCI  28
MAHNOMEN       FAIR      32  25  74 N14       29.80S WCI  22
$$
MNZ006-009>011-018-025>026-282200-
   North Central Minnesota

CITY           SKY/WX    TMP DP  RH WIND       PRES   REMARKS
BAUDETTE       SUNNY     28  10  46 N13       29.87F WCI  17
FLAG ISLAND    SUNNY     21   5  49 N12       29.93S WCI   9
INTL FALLS     SUNNY     28  14  55 N12       29.87R WCI  18
WASKISH        MOSUNNY   34  18  51 N12       29.84S WCI  25
BIG FORK       MOSUNNY   36  18  48 N9        29.81R
LONGVILLE      CLOUDY    30  21  69 NE5       29.78R WCI  25
GRAND RAPIDS   CLOUDY    31  23  72 N7        29.80S WCI  24
CRANE LAKE     MOSUNNY   28  18  64 N7        29.86S WCI  21
ORR            CLOUDY    32  16  51 CALM      29.80R
COOK           CLOUDY    30  19  64 NE5       29.82R WCI  25
WALKER         FAIR      32  20  63 NE9       29.78S WCI  24
$$
MNZ012-019>021-037-282200-
   Northeast Minnesota

CITY           SKY/WX    TMP DP  RH WIND       PRES   REMARKS
DULUTH         LGT SNOW  31  29  92 E10       29.75S FOG     WCI  22
ELY            CLOUDY    27  19  74 NE10      29.81R WCI  17
HIBBING        CLOUDY    29  21  72 N13       29.78S WCI  19
EVELETH        CLOUDY    32  22  66 N9        29.79S WCI  24
DULUTH HARBOR  MIX PCPN  32  30  93 NE24      29.79F WCI  19
TWO HARBORS    CLOUDY    34  28  80 E7        29.77R HAZE    WCI  28
SILVER BAY     CLOUDY    32  28  86 NE5       29.78R WCI  27
GRAND MARAIS     N/A     31  22  69 MISG      29.83S
G MARAIS ARPRT CLOUDY    25  18  74 N14       29.79R WCI  13
$$
MNZ029>031-032-039>041-046>048-054>057-064-282200-
   West Central Minnesota

CITY           SKY/WX    TMP DP  RH WIND       PRES   REMARKS
FERGUS FALLS   MOSUNNY   36  25  64 NE8       29.80S
WHEATON        PTSUNNY   34  27  75 N12       29.79R WCI  25
MORRIS         CLOUDY    36  28  75 N12       29.73S
ALEXANDRIA     CLOUDY    34  27  75 NE15      29.73S WCI  24
ELBOW LAKE     FAIR      32  26  79 NE10      29.75S WCI  24
WADENA         CLOUDY    30  23  74 N10       29.75F WCI  21
GLENWOOD       CLOUDY    34  30  86 N10       29.72R WCI  26
APPLETON       CLOUDY    36  30  80 N12       29.73S
BENSON         CLOUDY    37  28  70 NE8       29.74R
ORTONVILLE     CLOUDY    30  27  86 N13       29.74F WCI  20
MADISON        CLOUDY    36  30  80 N16       29.73S
WILLMAR        LGT SNOW  36  32  87 NE16      29.72R
$$
MNZ033>034-036-042>043-049>051-058-059-282200-
   Central Minnesota

CITY           SKY/WX    TMP DP  RH WIND       PRES   REMARKS
ST CLOUD       CLOUDY    34  31  88 N8        29.71R FOG     WCI  27
SAUK CENTRE    CLOUDY    33  29  86 N9        29.72S WCI  25
PAYNESVILLE    CLOUDY    33  33 100 N12G23    29.71R WCI  25
AITKIN         MIX PCPN  36  25  64 N9        29.75S
PINE RIVER     CLOUDY    32  25  74 NE7       29.81R WCI  26
BRAINERD       CLOUDY    34  28  79 N13       29.73F WCI  25
STAPLES        CLOUDY    32  25  74 NE8       29.74F WCI  25
LONG PRAIRIE   CLOUDY    32  28  86 NW10      29.72F WCI  24
LITTLE FALLS   LGT SNOW  32  30  93 N6        29.73S WCI  26
LITCHFIELD     CLOUDY    37  34  87 N10       29.69R
BUFFALO        CLOUDY    39  32  75 N9        29.69R
MAPLE LAKE     CLOUDY    38  33  82 NE12      29.70R
HUTCHINSON     CLOUDY    42  35  78 N10G17    29.67S
$$
MNZ037-044-045-052-053-282200-
   East Central Minnesota

CITY           SKY/WX    TMP DP  RH WIND       PRES   REMARKS
PRINCETON      LGT SNOW  36  32  87 N12       29.71S
MORA           LGT SNOW  32  30  93 N6        29.75R WCI  26
CAMBRIDGE      LGT RAIN  37  28  70 N7        29.69S
RUSH CITY      LGT RAIN  34  32  92 N8        29.71S WCI  27
MOOSE LAKE     CLOUDY    32  30  93 NE13G18   29.73R WCI  22
HINCKLEY       LGT SNOW  34  32  93 N10G16    29.73R WCI  26
CLOQUET        LGT SNOW  32  28  86 E9        29.75R WCI  24
MCGREGOR       CLOUDY    34  30  86 N7        29.76R WCI  28
$$
MNZ071>073-080-081-089-090-097-098-282200-
   Southwest Minnesota

CITY           SKY/WX    TMP DP  RH WIND       PRES   REMARKS
MONTEVIDEO     CLOUDY    34  34 100 NE9       29.73S WCI  26
GRANITE FALLS  DRIZZLE   37  34  90 N12       29.71S
CANBY          CLOUDY    31  28  87 NW9G17    29.74R WCI  23
MARSHALL       CLOUDY    31  28  89 N17       29.71R WCI  19
REDWOOD FALLS  CLOUDY    43  34  70 N9G18     29.66F
OLIVIA         CLOUDY    39  34  81 N14       29.68R
PIPESTONE      CLOUDY    32  27  80 NE9       29.67R HAZE    WCI  24
WINDOM         CLOUDY    39  36  87 NW14      29.64R
WORTHINGTON    CLOUDY    36  33  89 N15       29.65R FOG
JACKSON        CLOUDY    41  36  81 N10       29.63S
TRACY          CLOUDY    32  31  96 NW13      29.69R WCI  23
SLAYTON        CLOUDY    31  30  96 N15       29.68R FOG     WCI  20
$$
MNZ065>067-074>077-082>085-091>093-282200-
   South Central Minnesota

CITY           SKY/WX    TMP DP  RH WIND       PRES   REMARKS
MANKATO          N/A     44  37  76 SE7       29.63F
NEW ULM        CLOUDY    45  34  65 NE9       29.64F
ST JAMES       PTSUNNY   45  37  76 N6        29.64F
FAIRMONT       CLOUDY    40  36  86 NE6       29.63F
GLENCOE        CLOUDY    45  37  76 N10       29.65S
FARIBAULT      CLOUDY    43  37  81 NE5       29.64R
OWATONNA       CLOUDY    41  34  75 NE5       29.63S
WASECA         CLOUDY    39  34  81 NE7       29.65R
ALBERT LEA     CLOUDY    39  36  87 N9        29.60F FOG
$$
MNZ078>079-086>088-094>096-282200-
   Southeast Minnesota

CITY           SKY/WX    TMP DP  RH WIND       PRES   REMARKS
ROCHESTER      CLOUDY    40  37  89 NE9       29.61S FOG
RED WING       CLOUDY    43  34  70 E5        29.64S
STANTON        CLOUDY    42  36  80 NE6       29.63R
WINONA         CLOUDY    41  37  87 N3        29.63S FOG
AUSTIN         CLOUDY    39  36  87 N7        29.60F FOG
PRESTON        FOG       38  37  94 N6        29.60F VSB 1/4
$$
ABBREVIATIONS USED IN REMARKS
   TC - TEMPERATURES IN CELSIUS
  WCI - WIND CHILL INDEX
   HX - HEAT INDEX
  VSB - VISIBILITY
$$




USA.gov is the U.S. government's official web portal to all federal, state and local government web resources and services.